Regional Weather Roundup
Issued by NWS

Home | Current Version | Previous Version | Graphics & Text | Print | Product List | Glossary On
Versions: 1 2 3 4 5 6 7 8 9 10 11 12 13 14 15 16 17 18 19 20 21 22 23 24 25 26 27 28 29 30 31 32 33 34 35 36 37 38 39 40 41 42 43 44 45 46 47 48 49 50
000
ASUS43 KLMK 231902
RWRKY
KENTUCKY REGIONAL WEATHER ROUNDUP
NATIONAL WEATHER SERVICE LOUISVILLE KY
300 PM EDT WED AUG 23 2017

NOTE "FAIR" INDICATES FEW OR NO CLOUDS BELOW 12,000 FEET
WITH NO SIGNIFICANT WEATHER AND/OR OBSTRUCTIONS TO VISIBILITY.

KYZ001>023-026-027-061>063-070>075-232000-
WESTERN AND SOUTH CENTRAL KENTUCKY

CITY           SKY/WX    TMP DP  RH WIND       PRES   REMARKS
PADUCAH        MOSUNNY   81  54  39 N6        30.04F
HENDERSON      NOT AVBL
OWENSBORO      MOSUNNY   79  57  46 NW6       30.04F
HOPKINSVILLE   MOSUNNY   79  56  45 N3        30.03F
BOWLING GREEN  MOSUNNY   82  59  45 NW8       30.03F
GLASGOW        MOSUNNY   79  58  48 N3        30.02F
$$

KYZ024-025-028>034-038-045-046-053-232000-
NORTH CENTRAL KENTUCKY

CITY           SKY/WX    TMP DP  RH WIND       PRES   REMARKS
LOUISVILLE/SDF MOSUNNY   81  55  40 N10       30.02F
LOUISVILLE/LOU MOSUNNY   80  57  45 VRB7      30.03F
FORT KNOX      MOSUNNY   78  56  46 N3        30.01F
$$

KYZ035>037-039>044-047>052-055>060-089>105-232000-
NORTHEAST KENTUCKY

CITY           SKY/WX    TMP DP  RH WIND       PRES   REMARKS
LEXINGTON      MOSUNNY   78  52  40 VRB3      30.03F
COVINGTON      PTSUNNY   78  55  44 NW8       30.02F
FRANKFORT      MOSUNNY   81  53  37 N5        30.02F
$$

KYZ054-064>069-076>088-106>120-232000-
SOUTHEAST KENTUCKY

CITY           SKY/WX    TMP DP  RH WIND       PRES   REMARKS
JACKSON        MOSUNNY   76  61  59 MISG      30.01F
LONDON         PTSUNNY   79  61  53 NW9       30.00F
SOMERSET       NOT AVBL
MIDDLESBORO    MOSUNNY   83  61  46 NW6       29.99F
MONTICELLO     MOCLDY    78  64  61 VRB7G16   30.03F
$$





USA.gov is the U.S. government's official web portal to all federal, state and local government web resources and services.